Regional Weather Roundup
Issued by NWS Glasgow, MT

Home | Current Version | Previous Version | Text Only | Print | Product List | Glossary On
Versions: 1 2 3 4 5 6 7 8 9 10 11 12 13 14 15 16 17 18 19 20 21 22 23 24 25 26 27 28 29 30 31 32 33 34 35 36 37 38 39 40 41 42 43 44 45 46 47 48 49 50
000
ASUS45 KGGW 050315
RWRGGW
HOURLY REGIONAL WEATHER ROUNDUP FOR NORTHEAST MONTANA
NATIONAL WEATHER SERVICE GLASGOW MONTANA
900 PM MDT FRI SEP 04 2015

NOTE: "FAIR" INDICATES FEW OR NO CLOUDS BELOW 12,000 FEET WITH NO
SIGNIFICANT WEATHER AND/OR OBSTRUCTIONS TO VISISBILITY.

NORTHEAST MONTANA


CITY           SKY/WX    TMP DP  RH WIND       PRES   REMARKS
GLASGOW        CLOUDY    58  45  62 NE20G29   29.95R
PLENTYWOOD       N/A     61  49  64 NE16        N/A
WOLF POINT     CLOUDY    68  49  50 NE20      29.92R
JORDAN           N/A     60  49  66 N20       29.92R
WINNETT          N/A     55  46  71 N13         N/A
SIDNEY         CLOUDY    68  57  68 NE12        N/A
GLENDIVE       PTCLDY    64  57  77 N8        29.88S
MALTA            N/A     53  46  77 NE12        N/A
SCOBEY           N/A     57  42  57 N15G24    29.98R
OPHEIM           N/A     48  45  87 N15       29.85F

FORT PECK REPORTS


CITY           SKY/WX    TMP DP  RH WIND       PRES   REMARKS
THE PINES        N/A     66  50  56 NE12G21     N/A

SOUTHEAST MONTANA


CITY           SKY/WX    TMP DP  RH WIND       PRES   REMARKS
BILLINGS       MOCLDY    59  46  62 NE16      29.94R
MILES CITY     CLEAR     66  56  70 NE10      29.86R
BAKER          CLEAR     66  59  78 N6        29.87R
LIVINGSTON     CLOUDY    54  49  83 E21       29.92R

CENTRAL MONTANA


CITY           SKY/WX    TMP DP  RH WIND       PRES   REMARKS
HAVRE          CLOUDY    53  50  89 NE9       30.02R
LEWISTOWN      CLOUDY    52  47  83 N10       30.00F
GREAT FALLS    CLOUDY    49  48  97 N12       30.00S
CUT BANK       CLOUDY    45  44  97 N13       30.05S FOG
HELENA         LGT RAIN  51  47  86 N14       29.94S
BUTTE          LGT RAIN  48  44  86 VRB3      29.96F
BOZEMAN        CLOUDY    53  48  83 NW6       29.92R

WESTERN MONTANA


CITY           SKY/WX    TMP DP  RH WIND       PRES   REMARKS
MISSOULA       CLOUDY    58  41  53 E14       29.88S
KALISPELL      NOT AVBL

NORTH DAKOTA


CITY           SKY/WX    TMP DP  RH WIND       PRES   REMARKS
WILLISTON      CLOUDY    65  56  72 NE15      29.92R
DICKINSON      PTCLDY    63  60  90 NE15      29.85R
MINOT          CLOUDY    62  58  86 N12       29.89R
BISMARCK       CLEAR     75  69  81 NE7       29.81R

SOUTHERN SASKATCHEWAN


CITY           SKY/WX    TMP DP  RH WIND       PRES   REMARKS
REGINA         CLOUDY    54  46  76 N15G25    30.05S
ESTEVAN        NOT AVBL
SWIFT CURRENT  CLOUDY    46  45  93 NE15      30.08F



USA.gov is the U.S. government's official web portal to all federal, state and local government web resources and services.